STARLINK-38218, 100195

Orbit data source: Space-Track

STARLINK-38218, 100195 is a payload satellite owned by SpaceX/Seattle (US) in SSO that was launched on Sat, 01 Aug 2026 UTC launched from the Air Force Western Test Range (AFWTR). Payload-class satellites include a variety of spacecraft equipped with specific instruments for various scientific and technological missions. These include communications satellites like Starlink; space stations such as the ISS; scientific satellites like the Hubble; Earth observation satellites from companies like Planet Labs, Umbra, and HawkEye 360; GPS; miniature CubeSats for education and research; and military/defense satellites.

Loading next visibility...
Identifier
100195, 2026-175S
Orbit
SSO
Country
Flag of USUS
Related business
Manufacturer
SpaceX/Seattle
Mission
Operational spacecraft
Bus & Motor
STARLINK V2MO, Unknown motor
Mass
575 kg wet, ~530 kg dry
Launch date (UTC)
2026-08-01 (2 months ago)
Launch vehicle
Unknown
Launch site
Air Force Western Test Range (AFWTR)
Object type
Payload
Rocket body
Debris
Shape & HBR
BOX + PAN, 17.7 m
Radar Cross Section
Large (>1 m²)

Expand to show TLE details & history
Last TLE update: 6 hours ago

TLE from 6 hours ago
0 STARLINK-38218
1 A0195U 26175S   26263.96817571 -.00848777  00000-0 -91627-2 0  9999
2 A0195  97.2838 106.4849 0001886  50.6051 309.5376 15.66172117  9252
Epoch: 2026-09-20T23:14Z
TLE epoch observation values (Epoch: 2026-09-20T23:14:10.381Z)
Latitude
-0.00003°
Longitude
118.0869°
Altitude
372.216 km
Speed
7.687 km/s
True Right ascension
07h 05m 56s
True Declination
0° 00' 00"
Sunlit
Object was in daylight at epoch
Visualization orbit readout
Latitude
Unknown
Longitude
Unknown
Altitude
Unknown
Speed
Unknown
Apparent Right ascension
Unknown
Apparent Declination
Unknown
Sunlit
N/A
Visualization observer readout
Local Sidereal Time
22:07:49
Azimuth
Unknown
Elevation
Unknown
Doppler factor
Unknown
Orbital elements
Apogee altitude
368.041 km
Perigee altitude
365.497 km
Semi-major axis
6,744.906 km
Eccentricity
0.00019
Inclination
97.2838°
RAAN
106.4849°
Arg. of periapsis
50.6051°
True anomaly
309.52093°
Mean anomaly
309.5376°
Eccentric anomaly
309.52927°
Mean motion
3.91813 °/min
Orbital period
91.88 mins
BSTAR
-0.0091627
Loading maneuver chart data...
Computing Atmospheric mass density...
Loading historical data...
Loading historical data...
Loading historical data...
Loading historical data...
Loading historical data...
Loading historical data...
Loading historical data...

Documentation

Showing up to 5 results
|